Regional Weather Roundup
Issued by NWS State College, PA

Home | Current Version | Previous Version | Text Only | Print | Product List | Glossary On
Versions: 1 2 3 4 5 6 7 8 9 10 11 12 13 14 15 16 17 18 19 20 21 22 23 24 25 26 27 28 29 30 31 32 33 34 35 36 37 38 39 40 41 42 43 44 45 46 47 48 49 50
000
ASUS41 KCTP 030703
RWRCTP

REGIONAL WEATHER ROUNDUP
NATIONAL WEATHER SERVICE STATE COLLEGE PA
300 AM EDT TUE MAY 03 2016

Note: "fair" indicates few or no clouds below 12,000 feet with no
significant weather and/or obstructions to visibility.

* = STATION THAT DOES NOT REPORT PRECIPITATION /E.G. RAIN...SNOW...ETC/
    THUNDER OR FOG.

PAZ002>004-007>009-013>016-020>023-029>032-030800-
WESTERN PENNSYLVANIA

CITY           SKY/WX    TMP DP  RH WIND       PRES   REMARKS
ERIE           CLOUDY    43  41  93 CALM      29.94S
MEADVILLE      CLOUDY    40  40 100 N5        29.91F FOG
FRANKLIN*      CLOUDY    46  41  81 N5        29.91F
NEW CASTLE     CLOUDY    45  43  93 N6        29.91F
BEAVER COUNTY  NOT AVBL
BUTLER*        CLOUDY    48  43  81 CALM      29.92S
PITTSBURGH INT CLOUDY    49  43  80 N9        29.88F
PITTSBURGH     CLOUDY    50  45  83 NW7       29.87F
INDIANA*       CLOUDY    54  52  94 CALM      29.89F
LATROBE        CLOUDY    54  54 100 W3        29.87F
WASHINGTON CO* CLOUDY    50  46  87 NW5       29.89F
$$

PAZ004>006-010>012-017>019-024>028-033>037-041-042-045-046-049>053-030800-
CENTRAL PENNSYLVANIA

CITY           SKY/WX    TMP DP  RH WIND       PRES   REMARKS
BRADFORD       CLOUDY    44  42  93 E6        29.89F FOG
DUBOIS         CLOUDY    49  46  90 N6        29.86F
CLEARFIELD     CLOUDY    53  48  83 NE7       29.86F
JOHNSTOWN      CLOUDY    53  49  86 CALM      29.85F
ALTOONA        LGT RAIN  55  53  93 N3        29.86S FOG
STATE COLLEGE  CLOUDY    49  49  98 NE10      29.86F
WILLIAMSPORT   CLOUDY    50  46  86 N3        29.88F
SELINSGROVE    CLOUDY    52  48  86 N6        29.88F
FT INDIANTOWN  NOT AVBL
CAPITAL CITY   LGT RAIN  59  56  89 NE3       29.83F FOG
HARRISBURG     LGT RAIN  59  56  89 E5        29.82F FOG
YORK           LGT RAIN  59  57  93 SE6       29.82F FOG
$$

PAZ038>040-043-044-047-048-054-055-060>062-067>071-030800-
EASTERN PENNSYLVANIA

CITY           SKY/WX    TMP DP  RH WIND       PRES   REMARKS
SCRANTON       RAIN      49  47  93 NE5       29.88F FOG
MOUNT POCONO   LGT RAIN  47  44  90 N8        29.86F
ALLENTOWN      LGT RAIN  54  51  90 NE10      29.85F
QUAKERTOWN*    CLOUDY    55  55 100 E3        29.85F
READING        LGT RAIN  57  55  93 CALM      29.84S FOG
LANCASTER      LGT RAIN  57  56  96 E5        29.83S FOG
COATESVILLE    CLOUDY    57  57 100 E9G16     29.85F FOG
POTTSTOWN      LGT RAIN  55  55 100 VRB6      29.84F FOG
BLUE BELL      CLOUDY    54  54 100 E5        29.83F
DOYLESTOWN     LGT RAIN  54  54 100 VRB5      29.84F
WILLOW GROVE   NOT AVBL
NORTH PHILA    CLOUDY    58  55  90 E8        29.85F FOG
PHILADELPHIA   CLOUDY    58  54  86 E10       29.84F
$$



USA.gov is the U.S. government's official web portal to all federal, state and local government web resources and services.